Time,TemperatureF,DewpointF,PressureIn,WindDirection,WindDirectionDegrees,WindSpeedMPH,WindSpeedGustMPH,Humidity,HourlyPrecipIn,Conditions,Clouds,dailyrainin,SoftwareType,DateUTC
2013-04-07 00:00:00,51.9,42.8,29.68,NNE,24,0.0,0.0,71,0.00,,,0.00,Wunderground v.1.15,2013-04-07 05:00:00,
2013-04-07 00:10:00,51.6,42.5,29.68,NNE,24,0.0,0.0,71,0.00,,,0.00,Wunderground v.1.15,2013-04-07 05:10:00,
2013-04-07 00:20:00,51.1,42.4,29.69,NNE,24,0.0,0.0,72,0.00,,,0.00,Wunderground v.1.15,2013-04-07 05:20:00,
2013-04-07 00:30:00,50.7,42.0,29.69,NNE,24,0.0,0.0,72,0.00,,,0.00,Wunderground v.1.15,2013-04-07 05:30:00,
2013-04-07 00:40:00,50.2,41.5,29.69,NNE,24,0.0,0.0,72,0.00,,,0.00,Wunderground v.1.15,2013-04-07 05:40:00,
2013-04-07 00:50:00,49.6,40.9,29.70,NNW,331,0.0,0.0,72,0.00,,,0.00,Wunderground v.1.15,2013-04-07 05:50:00,
2013-04-07 01:00:00,49.2,40.6,29.70,NNW,331,0.0,0.0,72,0.00,,,0.00,Wunderground v.1.15,2013-04-07 06:00:00,
2013-04-07 01:10:00,48.9,40.3,29.70,NNW,331,0.0,4.0,72,0.00,,,0.00,Wunderground v.1.15,2013-04-07 06:10:00,
2013-04-07 01:20:00,48.6,40.0,29.71,NNW,331,0.0,4.0,72,0.00,,,0.00,Wunderground v.1.15,2013-04-07 06:20:00,
2013-04-07 01:30:00,48.3,39.7,29.71,NNW,331,0.0,4.0,72,0.00,,,0.00,Wunderground v.1.15,2013-04-07 06:30:00,
2013-04-07 01:40:00,48.0,39.8,29.71,NNW,331,0.0,4.0,73,0.00,,,0.00,Wunderground v.1.15,2013-04-07 06:40:00,
2013-04-07 01:50:00,47.7,39.5,29.73,NNW,331,0.0,4.0,73,0.00,,,0.00,Wunderground v.1.15,2013-04-07 06:50:00,
2013-04-07 02:00:00,47.4,39.5,29.73,NNW,331,0.0,4.0,74,0.00,,,0.00,Wunderground v.1.15,2013-04-07 07:00:00,
2013-04-07 02:10:00,47.1,39.2,29.73,NNW,340,0.0,4.0,74,0.00,,,0.00,Wunderground v.1.15,2013-04-07 07:10:00,
2013-04-07 02:20:00,47.0,39.1,29.73,NNW,340,0.0,4.0,74,0.00,,,0.00,Wunderground v.1.15,2013-04-07 07:20:00,
2013-04-07 02:30:00,46.8,39.3,29.74,NNW,340,0.0,4.0,75,0.00,,,0.00,Wunderground v.1.15,2013-04-07 07:30:00,
2013-04-07 02:40:00,46.5,39.0,29.74,NNW,340,0.0,4.0,75,0.00,,,0.00,Wunderground v.1.15,2013-04-07 07:40:00,
2013-04-07 02:50:00,46.4,38.9,29.74,NNW,340,0.0,4.0,75,0.00,,,0.00,Wunderground v.1.15,2013-04-07 07:50:00,
2013-04-07 03:00:00,46.0,38.5,29.74,NNW,340,0.0,4.0,75,0.00,,,0.00,Wunderground v.1.15,2013-04-07 08:00:00,
2013-04-07 03:10:00,45.7,38.6,29.74,NNW,340,0.0,4.0,76,0.00,,,0.00,Wunderground v.1.15,2013-04-07 08:10:00,
2013-04-07 03:20:00,45.2,38.1,29.73,NNW,340,0.0,4.0,76,0.00,,,0.00,Wunderground v.1.15,2013-04-07 08:20:00,
2013-04-07 03:30:00,45.1,38.3,29.73,NNW,340,0.0,4.0,77,0.00,,,0.00,Wunderground v.1.15,2013-04-07 08:30:00,
2013-04-07 03:40:00,44.8,38.0,29.73,NNW,340,0.0,4.0,77,0.00,,,0.00,Wunderground v.1.15,2013-04-07 08:40:00,
2013-04-07 03:50:00,44.6,38.2,29.73,NNW,340,0.0,4.0,78,0.00,,,0.00,Wunderground v.1.15,2013-04-07 08:50:00,
2013-04-07 04:00:00,44.3,37.9,29.73,NNW,340,0.0,4.0,78,0.00,,,0.00,Wunderground v.1.15,2013-04-07 09:00:00,
2013-04-07 04:10:00,44.2,37.8,29.73,NNW,340,0.0,4.0,78,0.00,,,0.00,Wunderground v.1.15,2013-04-07 09:10:00,
2013-04-07 04:20:00,43.9,37.8,29.74,NNW,340,0.0,4.0,79,0.00,,,0.00,Wunderground v.1.15,2013-04-07 09:20:00,
2013-04-07 04:30:00,43.8,37.7,29.75,NNW,340,0.0,4.0,79,0.00,,,0.00,Wunderground v.1.15,2013-04-07 09:30:00,
2013-04-07 04:40:00,43.5,37.4,29.75,NNW,340,0.0,4.0,79,0.00,,,0.00,Wunderground v.1.15,2013-04-07 09:40:00,
2013-04-07 04:50:00,43.3,37.2,29.75,NNW,340,0.0,4.0,79,0.00,,,0.00,Wunderground v.1.15,2013-04-07 09:50:00,
2013-04-07 05:00:00,43.1,37.0,29.75,NNW,340,0.0,4.0,79,0.00,,,0.00,Wunderground v.1.15,2013-04-07 10:00:00,
2013-04-07 05:10:00,42.8,36.7,29.75,NNW,340,0.0,4.0,79,0.00,,,0.00,Wunderground v.1.15,2013-04-07 10:10:00,
2013-04-07 05:20:00,42.5,36.4,29.76,NNW,340,0.0,4.0,79,0.00,,,0.00,Wunderground v.1.15,2013-04-07 10:20:00,
2013-04-07 05:30:00,42.1,36.1,29.76,NNW,340,0.0,4.0,79,0.00,,,0.00,Wunderground v.1.15,2013-04-07 10:30:00,
2013-04-07 05:40:00,41.8,35.8,29.76,NNW,340,0.0,4.0,79,0.00,,,0.00,Wunderground v.1.15,2013-04-07 10:40:00,
2013-04-07 05:50:00,41.3,35.3,29.77,NNW,340,0.0,4.0,79,0.00,,,0.00,Wunderground v.1.15,2013-04-07 10:50:00,
2013-04-07 06:00:00,41.1,35.4,29.77,NNW,340,0.0,4.0,80,0.00,,,0.00,Wunderground v.1.15,2013-04-07 11:00:00,
2013-04-07 06:10:00,40.8,35.4,29.77,NNW,340,0.0,4.0,81,0.00,,,0.00,Wunderground v.1.15,2013-04-07 11:10:00,
2013-04-07 06:20:00,40.5,35.4,29.77,NNW,340,0.0,4.0,82,0.00,,,0.00,Wunderground v.1.15,2013-04-07 11:20:00,
2013-04-07 06:30:00,40.3,35.5,29.77,NNW,340,0.0,4.0,83,0.00,,,0.00,Wunderground v.1.15,2013-04-07 11:30:00,
2013-04-07 06:40:00,40.1,35.4,29.77,NNW,340,0.0,4.0,83,0.00,,,0.00,Wunderground v.1.15,2013-04-07 11:40:00,
2013-04-07 06:50:00,39.8,35.4,29.78,NNW,340,0.0,4.0,84,0.00,,,0.00,Wunderground v.1.15,2013-04-07 11:50:00,
2013-04-07 07:00:00,39.6,35.2,29.78,NNW,340,0.0,4.0,84,0.00,,,0.00,Wunderground v.1.15,2013-04-07 12:00:00,
2013-04-07 07:10:00,39.3,35.2,29.78,NNW,340,0.0,4.0,85,0.00,,,0.00,Wunderground v.1.15,2013-04-07 12:10:00,
2013-04-07 07:20:00,39.2,35.1,29.78,NNW,340,0.0,4.0,85,0.00,,,0.00,Wunderground v.1.15,2013-04-07 12:20:00,
2013-04-07 07:30:00,39.1,35.3,29.78,ENE,66,0.0,4.0,86,0.00,,,0.00,Wunderground v.1.15,2013-04-07 12:30:00,
2013-04-07 07:40:00,39.1,35.3,29.78,ENE,66,0.0,4.0,86,0.00,,,0.00,Wunderground v.1.15,2013-04-07 12:40:00,
2013-04-07 07:50:00,39.1,35.3,29.80,ENE,62,0.0,4.0,86,0.00,,,0.00,Wunderground v.1.15,2013-04-07 12:50:00,
2013-04-07 08:00:00,39.1,35.3,29.81,ENE,62,0.0,4.0,86,0.00,,,0.00,Wunderground v.1.15,2013-04-07 13:00:00,
2013-04-07 08:10:00,39.6,36.0,29.81,ENE,62,0.0,4.0,87,0.00,,,0.00,Wunderground v.1.15,2013-04-07 13:10:00,
2013-04-07 08:20:00,40.3,36.7,29.82,ENE,62,0.0,4.0,87,0.00,,,0.00,Wunderground v.1.15,2013-04-07 13:20:00,
2013-04-07 08:30:00,40.9,37.0,29.82,ENE,70,0.0,4.0,86,0.00,,,0.00,Wunderground v.1.15,2013-04-07 13:30:00,
2013-04-07 08:40:00,41.5,37.3,29.82,ENE,72,0.0,4.0,85,0.00,,,0.00,Wunderground v.1.15,2013-04-07 13:40:00,
2013-04-07 08:50:00,41.3,36.8,29.82,ENE,72,0.0,4.0,84,0.00,,,0.00,Wunderground v.1.15,2013-04-07 13:50:00,
2013-04-07 09:00:00,40.3,35.8,29.83,East,90,0.0,4.0,84,0.00,,,0.00,Wunderground v.1.15,2013-04-07 14:00:00,
2013-04-07 09:10:00,39.8,36.0,29.83,East,90,0.0,4.0,86,0.00,,,0.00,Wunderground v.1.15,2013-04-07 14:10:00,
2013-04-07 09:20:00,40.2,36.6,29.83,East,90,0.0,4.0,87,0.00,,,0.00,Wunderground v.1.15,2013-04-07 14:20:00,
2013-04-07 09:30:00,41.2,37.3,29.82,East,92,0.0,4.0,86,0.00,,,0.00,Wunderground v.1.15,2013-04-07 14:30:00,
2013-04-07 09:40:00,40.8,36.9,29.82,NE,49,0.0,4.0,86,0.00,,,0.00,Wunderground v.1.15,2013-04-07 14:40:00,
2013-04-07 09:50:00,40.8,36.9,29.82,East,94,1.0,1.0,86,0.00,,,0.00,Wunderground v.1.15,2013-04-07 14:50:00,
2013-04-07 10:00:00,41.2,37.3,29.83,East,92,0.0,4.0,86,0.00,,,0.00,Wunderground v.1.15,2013-04-07 15:00:00,
2013-04-07 10:10:00,41.9,37.7,29.83,East,83,1.0,1.0,85,0.00,,,0.00,Wunderground v.1.15,2013-04-07 15:10:00,
2013-04-07 10:20:00,41.9,37.4,29.83,East,84,0.0,4.0,84,0.00,,,0.00,Wunderground v.1.15,2013-04-07 15:20:00,
2013-04-07 10:30:00,42.9,38.4,29.84,East,84,0.0,4.0,84,0.00,,,0.00,Wunderground v.1.15,2013-04-07 15:30:00,
2013-04-07 10:40:00,43.9,38.8,29.84,East,94,0.0,4.0,82,0.00,,,0.00,Wunderground v.1.15,2013-04-07 15:40:00,
2013-04-07 10:50:00,44.1,38.3,29.84,East,93,0.0,4.0,80,0.00,,,0.00,Wunderground v.1.15,2013-04-07 15:50:00,
2013-04-07 11:00:00,44.9,38.8,29.84,NE,55,0.0,4.0,79,0.00,,,0.00,Wunderground v.1.15,2013-04-07 16:00:00,
2013-04-07 11:10:00,46.5,39.3,29.84,East,83,0.0,4.0,76,0.00,,,0.00,Wunderground v.1.15,2013-04-07 16:10:00,
2013-04-07 11:20:00,47.6,39.4,29.85,East,94,1.0,1.0,73,0.00,,,0.00,Wunderground v.1.15,2013-04-07 16:20:00,
2013-04-07 11:30:00,48.2,39.6,29.84,East,98,1.0,4.0,72,0.00,,,0.00,Wunderground v.1.15,2013-04-07 16:30:00,
2013-04-07 11:40:00,49.1,39.7,29.84,East,95,0.0,4.0,70,0.00,,,0.00,Wunderground v.1.15,2013-04-07 16:40:00,
2013-04-07 11:50:00,50.2,40.4,29.83,ENE,61,0.0,4.0,69,0.00,,,0.00,Wunderground v.1.15,2013-04-07 16:50:00,
2013-04-07 12:00:00,51.4,40.0,29.83,ENE,68,0.0,4.0,65,0.00,,,0.00,Wunderground v.1.15,2013-04-07 17:00:00,
2013-04-07 12:10:00,51.4,40.4,29.83,East,100,1.0,1.0,66,0.00,,,0.00,Wunderground v.1.15,2013-04-07 17:10:00,
2013-04-07 12:20:00,52.8,41.4,29.82,ENE,70,1.0,1.0,65,0.00,,,0.00,Wunderground v.1.15,2013-04-07 17:20:00,
2013-04-07 12:30:00,53.9,41.6,29.81,ESE,105,1.0,1.0,63,0.00,,,0.00,Wunderground v.1.15,2013-04-07 17:30:00,
2013-04-07 12:40:00,54.8,41.2,29.81,East,85,1.0,4.0,60,0.00,,,0.00,Wunderground v.1.15,2013-04-07 17:40:00,
2013-04-07 12:50:00,56.2,41.6,29.81,East,93,0.0,4.0,58,0.00,,,0.00,Wunderground v.1.15,2013-04-07 17:50:00,
2013-04-07 13:00:00,56.5,41.0,29.81,East,94,1.0,1.0,56,0.00,,,0.00,Wunderground v.1.15,2013-04-07 18:00:00,
2013-04-07 13:10:00,57.3,40.8,29.81,SSE,148,0.0,4.0,54,0.00,,,0.00,Wunderground v.1.15,2013-04-07 18:10:00,
2013-04-07 13:20:00,57.6,41.5,29.80,SE,140,0.0,4.0,55,0.00,,,0.00,Wunderground v.1.15,2013-04-07 18:20:00,
2013-04-07 13:30:00,57.6,41.1,29.79,East,101,1.0,1.0,54,0.00,,,0.00,Wunderground v.1.15,2013-04-07 18:30:00,
2013-04-07 13:40:00,58.6,41.5,29.79,East,86,1.0,1.0,53,0.00,,,0.00,Wunderground v.1.15,2013-04-07 18:40:00,
2013-04-07 13:50:00,59.2,42.1,29.78,SE,132,1.0,7.0,53,0.00,,,0.00,Wunderground v.1.15,2013-04-07 18:50:00,
2013-04-07 14:00:00,59.9,41.7,29.77,SSW,198,1.0,1.0,51,0.00,,,0.00,Wunderground v.1.15,2013-04-07 19:00:00,
2013-04-07 14:10:00,60.5,41.8,29.77,East,92,0.0,4.0,50,0.00,,,0.00,Wunderground v.1.15,2013-04-07 19:10:00,
2013-04-07 14:20:00,61.8,42.4,29.77,ESE,123,0.0,4.0,49,0.00,,,0.00,Wunderground v.1.15,2013-04-07 19:20:00,
2013-04-07 14:30:00,63.1,42.0,29.77,East,97,1.0,4.0,46,0.00,,,0.00,Wunderground v.1.15,2013-04-07 19:30:00,
2013-04-07 14:40:00,63.2,42.1,29.77,East,88,0.0,4.0,46,0.00,,,0.00,Wunderground v.1.15,2013-04-07 19:40:00,
2013-04-07 14:50:00,62.1,41.6,29.77,ENE,64,1.0,1.0,47,0.00,,,0.00,Wunderground v.1.15,2013-04-07 19:50:00,
2013-04-07 15:00:00,62.1,42.2,29.76,East,86,0.0,4.0,48,0.00,,,0.00,Wunderground v.1.15,2013-04-07 20:00:00,
2013-04-07 15:10:00,62.1,42.2,29.76,East,97,1.0,1.0,48,0.00,,,0.00,Wunderground v.1.15,2013-04-07 20:10:00,
2013-04-07 15:20:00,62.6,42.6,29.74,East,86,2.0,4.0,48,0.00,,,0.00,Wunderground v.1.15,2013-04-07 20:20:00,
2013-04-07 15:30:00,64.2,42.4,29.73,East,95,2.0,4.0,45,0.00,,,0.00,Wunderground v.1.15,2013-04-07 20:30:00,
2013-04-07 15:40:00,65.0,42.5,29.73,ESE,115,1.0,1.0,44,0.00,,,0.00,Wunderground v.1.15,2013-04-07 20:40:00,
2013-04-07 15:50:00,65.2,42.7,29.72,ENE,71,2.0,2.0,44,0.00,,,0.00,Wunderground v.1.15,2013-04-07 20:50:00,
2013-04-07 16:00:00,67.8,43.2,29.71,East,99,2.0,2.0,41,0.00,,,0.00,Wunderground v.1.15,2013-04-07 21:00:00,
2013-04-07 16:10:00,69.4,44.0,29.71,South,170,1.0,1.0,40,0.00,,,0.00,Wunderground v.1.15,2013-04-07 21:10:00,
2013-04-07 16:20:00,70.4,42.2,29.70,SW,217,1.0,4.0,36,0.00,,,0.00,Wunderground v.1.15,2013-04-07 21:20:00,
2013-04-07 16:30:00,70.6,42.3,29.70,SSW,209,1.0,4.0,36,0.00,,,0.00,Wunderground v.1.15,2013-04-07 21:30:00,
2013-04-07 16:40:00,70.3,42.8,29.70,South,177,1.0,1.0,37,0.00,,,0.00,Wunderground v.1.15,2013-04-07 21:40:00,
2013-04-07 16:50:00,70.4,42.9,29.69,East,95,1.0,1.0,37,0.00,,,0.00,Wunderground v.1.15,2013-04-07 21:50:00,
2013-04-07 17:00:00,70.4,42.2,29.69,East,93,1.0,4.0,36,0.00,,,0.00,Wunderground v.1.15,2013-04-07 22:00:00,
2013-04-07 17:10:00,70.8,42.5,29.69,East,101,1.0,4.0,36,0.00,,,0.00,Wunderground v.1.15,2013-04-07 22:10:00,
2013-04-07 17:20:00,69.9,42.4,29.68,East,98,1.0,1.0,37,0.00,,,0.00,Wunderground v.1.15,2013-04-07 22:20:00,
2013-04-07 17:30:00,69.4,42.7,29.67,ENE,57,2.0,2.0,38,0.00,,,0.00,Wunderground v.1.15,2013-04-07 22:30:00,
2013-04-07 17:40:00,69.9,43.1,29.67,East,80,1.0,1.0,38,0.00,,,0.00,Wunderground v.1.15,2013-04-07 22:40:00,
2013-04-07 17:50:00,69.8,42.3,29.67,SSE,163,1.0,4.0,37,0.00,,,0.00,Wunderground v.1.15,2013-04-07 22:50:00,
2013-04-07 18:00:00,69.8,42.3,29.66,SE,128,1.0,1.0,37,0.00,,,0.00,Wunderground v.1.15,2013-04-07 23:00:00,
2013-04-07 18:10:00,69.9,42.4,29.66,SSE,156,1.0,4.0,37,0.00,,,0.00,Wunderground v.1.15,2013-04-07 23:10:00,
2013-04-07 18:20:00,70.1,42.6,29.66,SSW,194,1.0,4.0,37,0.00,,,0.00,Wunderground v.1.15,2013-04-07 23:20:00,
2013-04-07 18:30:00,69.9,43.1,29.66,East,88,1.0,5.0,38,0.00,,,0.00,Wunderground v.1.15,2013-04-07 23:30:00,
2013-04-07 18:40:00,69.9,43.1,29.66,NE,51,1.0,4.0,38,0.00,,,0.00,Wunderground v.1.15,2013-04-07 23:40:00,
2013-04-07 18:50:00,69.6,42.9,29.65,NW,321,1.0,1.0,38,0.00,,,0.00,Wunderground v.1.15,2013-04-07 23:50:00,
2013-04-07 19:00:00,69.3,43.3,29.64,East,79,0.0,4.0,39,0.00,,,0.00,Wunderground v.1.15,2013-04-08 00:00:00,
2013-04-07 19:10:00,68.8,43.5,29.64,ESE,123,0.0,4.0,40,0.00,,,0.00,Wunderground v.1.15,2013-04-08 00:10:00,
2013-04-07 19:20:00,67.9,43.3,29.64,ENE,72,1.0,4.0,41,0.00,,,0.00,Wunderground v.1.15,2013-04-08 00:20:00,
2013-04-07 19:40:00,66.6,42.8,29.64,ENE,78,0.0,4.0,42,0.00,,,0.00,Wunderground v.1.15,2013-04-08 00:40:00,
2013-04-07 19:50:00,66.0,43.5,29.63,ENE,65,0.0,4.0,44,0.00,,,0.00,Wunderground v.1.15,2013-04-08 00:50:00,
2013-04-07 20:00:00,65.2,43.3,29.63,East,94,0.0,4.0,45,0.00,,,0.00,Wunderground v.1.15,2013-04-08 01:00:00,
2013-04-07 20:10:00,64.5,43.3,29.63,ENE,70,0.0,4.0,46,0.00,,,0.00,Wunderground v.1.15,2013-04-08 01:10:00,
2013-04-07 20:20:00,64.0,43.4,29.63,East,80,0.0,4.0,47,0.00,,,0.00,Wunderground v.1.15,2013-04-08 01:20:00,
2013-04-07 20:30:00,63.5,42.9,29.62,ENE,74,0.0,4.0,47,0.00,,,0.00,Wunderground v.1.15,2013-04-08 01:30:00,
2013-04-07 20:40:00,63.1,43.1,29.62,ENE,74,0.0,4.0,48,0.00,,,0.00,Wunderground v.1.15,2013-04-08 01:40:00,
2013-04-07 20:50:00,62.4,43.0,29.62,ESE,106,0.0,4.0,49,0.00,,,0.00,Wunderground v.1.15,2013-04-08 01:50:00,
2013-04-07 21:00:00,61.8,43.0,29.61,SE,128,0.0,4.0,50,0.00,,,0.00,Wunderground v.1.15,2013-04-08 02:00:00,
2013-04-07 21:10:00,61.3,43.0,29.61,SE,128,0.0,4.0,51,0.00,,,0.00,Wunderground v.1.15,2013-04-08 02:10:00,
2013-04-07 21:20:00,60.9,43.1,29.61,ENE,78,0.0,4.0,52,0.00,,,0.00,Wunderground v.1.15,2013-04-08 02:20:00,
2013-04-07 21:30:00,60.5,42.8,29.61,ESE,105,0.0,4.0,52,0.00,,,0.00,Wunderground v.1.15,2013-04-08 02:30:00,
2013-04-07 21:40:00,60.5,42.8,29.61,East,87,0.0,4.0,52,0.00,,,0.00,Wunderground v.1.15,2013-04-08 02:40:00,
2013-04-07 21:50:00,60.4,43.2,29.61,SSE,168,1.0,1.0,53,0.00,,,0.00,Wunderground v.1.15,2013-04-08 02:50:00,
2013-04-07 22:00:00,60.2,43.0,29.61,ENE,74,0.0,4.0,53,0.00,,,0.00,Wunderground v.1.15,2013-04-08 03:00:00,
2013-04-07 22:10:00,60.1,43.4,29.61,East,81,0.0,4.0,54,0.00,,,0.00,Wunderground v.1.15,2013-04-08 03:10:00,
2013-04-07 22:20:00,59.9,43.2,29.61,ENE,74,1.0,1.0,54,0.00,,,0.00,Wunderground v.1.15,2013-04-08 03:20:00,
2013-04-07 22:30:00,59.9,43.2,29.60,East,81,0.0,4.0,54,0.00,,,0.00,Wunderground v.1.15,2013-04-08 03:30:00,
2013-04-07 22:40:00,59.9,43.2,29.60,ESE,105,0.0,4.0,54,0.00,,,0.00,Wunderground v.1.15,2013-04-08 03:40:00,
2013-04-07 22:50:00,59.9,43.2,29.60,ENE,73,0.0,4.0,54,0.00,,,0.00,Wunderground v.1.15,2013-04-08 03:50:00,
2013-04-07 23:00:00,59.8,43.1,29.59,East,88,0.0,4.0,54,0.00,,,0.00,Wunderground v.1.15,2013-04-08 04:00:00,
2013-04-07 23:10:00,59.6,43.9,29.59,ENE,72,0.0,4.0,56,0.00,,,0.00,Wunderground v.1.15,2013-04-08 04:10:00,
2013-04-07 23:20:00,59.5,44.7,29.58,SE,126,1.0,1.0,58,0.00,,,0.00,Wunderground v.1.15,2013-04-08 04:20:00,
2013-04-07 23:30:00,59.2,44.9,29.58,South,184,0.0,4.0,59,0.00,,,0.00,Wunderground v.1.15,2013-04-08 04:30:00,
2013-04-07 23:40:00,58.9,45.0,29.58,South,182,0.0,4.0,60,0.00,,,0.00,Wunderground v.1.15,2013-04-08 04:40:00,
2013-04-07 23:50:00,58.7,44.8,29.59,SSE,168,0.0,4.0,60,0.00,,,0.00,Wunderground v.1.15,2013-04-08 04:50:00,